Regional Weather Roundup
Issued by NWS

Home | Current Version | Previous Version | Text Only | Print | Product List | Glossary Off
Versions: 1 2 3 4 5 6 7 8 9 10 11 12 13 14 15 16 17 18 19 20 21 22 23 24 25 26 27 28 29 30 31 32 33 34 35 36 37 38 39 40 41 42 43 44 45 46 47 48 49 50

000
ASUS43 KLOT 310009
RWRIL

ILLINOIS REGIONAL WEATHER ROUNDUP
NATIONAL WEATHER SERVICE CHICAGO/ROMEOVILLE IL
700 PM CDT TUE AUG 30 2016

NOTE: "FAIR" INDICATES FEW OR NO CLOUDS BELOW 12,000 FEET WITH NO
SIGNIFICANT WEATHER AND/OR OBSTRUCTIONS TO VISIBILITY.

* THESE STATIONS ARE NOT UNDER NWS QUALITY CONTROL. THEY ALSO MAY NOT
  REPORT WEATHER SUCH AS PRECIPITATION OR FOG.

ILZ001-002-007-009-015-016-024-310100-
NORTHWEST ILLINOIS

CITY           SKY/WX    TMP DP  RH WIND       PRES   REMARKS
MOLINE         LGT RAIN  74  66  76 N3        30.06S
6HR MIN TEMP:  74; 6HR MAX TEMP:  86; 6HR PCP: TRACE;

STERLING*      MOCLDY    76  71  85 NE5       30.06F
SAVANNA*       CLOUDY    75  70  85 CALM      30.05F
$$

ILZ003-004-008-010-011-017-018-310100-
NORTH CENTRAL ILLINOIS

CITY           SKY/WX    TMP DP  RH WIND       PRES   REMARKS
ROCKFORD       CLOUDY    74  69  85 CALM      30.06F
6HR MIN TEMP:  74; 6HR MAX TEMP:  84; 6HR PCP: TRACE;

FREEPORT*      CLOUDY    72  68  88 W5        30.07F
ROCHELLE*      CLOUDY    72  71  96 CALM      30.06F
DE KALB*       PTCLDY    70  68  93 N3        30.06F
$$

ILZ005-006-012>014-019>023-310100-
NORTHEAST ILLINOIS

CITY           SKY/WX    TMP DP  RH WIND       PRES   REMARKS
CHICAGO-OHARE  MOCLDY    78  66  66 N6        30.03F HX  80
6HR MIN TEMP:  76; 6HR MAX TEMP:  84;

CHICAGO-MIDWAY MOCLDY    80  66  62 N7        30.03F HX  82
6HR MIN TEMP:  80; 6HR MAX TEMP:  85;

AURORA         CLOUDY    74  69  85 NW3       30.05F
6HR MIN TEMP:  74; 6HR MAX TEMP:  84;

LANSING*       MOCLDY    77  71  81 N6        30.04S
JOLIET*        MOCLDY    82  72  71 CALM      30.03F HX  87
WAUKEGAN       PTCLDY    72  69  90 CALM      30.03F
6HR MIN TEMP:  71; 6HR MAX TEMP:  82; 6HR PCP: TRACE;

DUPAGE AIRPORT CLOUDY    75  69  81 N3        30.04F
6HR MIN TEMP:  75; 6HR MAX TEMP:  84; 6HR PCP: TRACE;

KANKAKEE*      PTCLDY    78  73  85 W3        30.05S HX  80
WHEELING       PTCLDY    76  65  68 NW5       30.04F
6HR MIN TEMP:  75; 6HR MAX TEMP:  85;

MORRIS*        RAIN      75  68  78 CALM      30.03S
ROMEOVILLE*    PTCLDY    79  73  81 CALM      30.04S HX  82
NORTHERLY ISL    N/A     76  66  71 NE3         N/A
$$

LMZ740>746-310100-
SOUTHERN LAKE MICHIGAN

STATION/POSITION SKY/WX   TEMP    WIND        PRES    VSBY  WAVE
                          AIR SEA DIR/SP/G                  HT/PER
                          (F)     (DEG/KT/KT) (MB)    (MI)  (FT/S)
SOUTHERN BUOY              74 76  280/  6/  8 1016.2F         1/ 3
WILMETTE HARBOR            71 72  320/  4/  6   N/A           1/ 3
HARRISON CRIB              73     350/ 10/ 12   N/A
BURNHAM HARBOR             75      CALM  / 11   N/A
CALUMET HARBOR             74                 1017.1R
BURNS HARBOR               77     350/  6/ 13 1017.3F
MICHIGAN CITY              76     350/  2/  2   N/A
MICHIGAN CITY 6N           77 76   10/  4/  6   N/A           1
ST. JOSEPH                 75 76   50/  2/  4 1016.5F         0
$$

ILZ025>027-034>036-040-047-049-050-058-095>099-310100-
WEST-CENTRAL ILLINOIS

CITY           SKY/WX    TMP DP  RH WIND       PRES   REMARKS
QUINCY         MOCLDY    78  71  79 S3        30.08F HX  80
GALESBURG*     PTCLDY    79  71  76 CALM      30.07F HX  82
MACOMB*        MOCLDY    79  74  86 W3        30.09F HX  82
JACKSONVILLE*  MOCLDY    77  72  83 W3        30.07F
PITTSFIELD*    MOCLDY    76  73  88 CALM      30.09F
$$

ILZ028>032-037-038-041>044-048-051>054-059>061-310100-
CENTRAL ILLINOIS

CITY           SKY/WX    TMP DP  RH WIND       PRES   REMARKS
PONTIAC        LGT RAIN  74  72  91 NW5       30.06S
BLOOMINGTON    CLOUDY    77  73  87 W5        30.07F
DECATUR        CLOUDY    78  68  71 NW8       30.06F HX  80
PEORIA         PTCLDY    80  75  84 NW3       30.06F HX  85
6HR MIN TEMP:  79; 6HR MAX TEMP:  82;

LACON*         MOCLDY    76  71  84 CALM      30.05S
LINCOLN*       CLOUDY    78  72  81 CALM      30.06F HX  80
SPRINGFIELD    CLOUDY    79  73  82 W3        30.06F HX  82
6HR MIN TEMP:  76; 6HR MAX TEMP:  80; 6HR PCP:  0.01;

TAYLORVILLE    CLOUDY    75  73  93 CALM      30.06S
6HR MIN TEMP:  75; 6HR MAX TEMP:  78; 6HR PCP:  0.02;

$$

ILZ033-039-045-046-055>057-062-063-310100-
EAST-CENTRAL ILLINOIS

CITY           SKY/WX    TMP DP  RH WIND       PRES   REMARKS
CHAMPAIGN      CLOUDY    76  71  85 W7        30.06F
RANTOUL*       PTCLDY    78  74  87 W3        30.05F HX  81
MATTOON        CLOUDY    79  72  79 NW7       30.05S HX  82
PARIS*         CLOUDY    81  75  81 NW6       30.05S THUNDER HX  86
$$

ILZ079-100>102-310100-
SOUTHWEST ILLINOIS

CITY           SKY/WX    TMP DP  RH WIND       PRES   REMARKS
ALTON          LGT RAIN  72  72 100 CALM      30.05F
BELLEVILLE     MOCLDY    76  73  91 NE5       30.03F
CAHOKIA*       CLOUDY    75  71  87 NW3       30.03F
SPARTA*        CLOUDY    76  71  84 CALM      30.04F
$$

ILZ064>066-069>071-074>076-080>082-084>086-088>090-092>094-310100-
SOUTH-CENTRAL ILLINOIS

CITY           SKY/WX    TMP DP  RH WIND       PRES   REMARKS
CARBONDALE     CLEAR     82  72  71 NW9       30.03S HX  87
6HR MIN TEMP:  82; 6HR MAX TEMP:  91;

CAIRO*         CLEAR     84  77  79 CALM      30.01S HX  93
EFFINGHAM*     CLOUDY    80  73  79 N5        30.06S HX  84
MARION         CLEAR     86  72  62 CALM      30.03F HX  92
MT. VERNON     MOCLDY    82  70  65 N5        30.04S HX  86
CENTRALIA*     PTCLDY    80  75  85 NW7       30.04S HX  85
SALEM*         PTCLDY    79  73  83 NW3       30.05S HX  82
METROPOLIS*    CLEAR     88  73  60 CALM      30.01S HX  95
$$

ILZ067-068-072-073-078-083-087-091-310100-
SOUTHEAST ILLINOIS

CITY           SKY/WX    TMP DP  RH WIND       PRES   REMARKS
LAWRENCEVILLE  PTCLDY    85  75  72 NW5       30.01F HX  93
FLORA*         CLEAR     83  75  78 N10       30.03S HX  90
FAIRFIELD*     PTCLDY    83  75  76 CALM      30.01S HX  90
HARRISBURG*    CLEAR     87  75  69 NW3       30.02S HX  96
ROBINSON*      CLOUDY    80  74  82 W6        30.03R THUNDER HX  85
CARMI*         CLEAR     85  76  73 CALM      30.00S HX  94
$$

ABBREVIATIONS USED IN REMARKS
   TC - TEMPERATURE IN CELSIUS
  WCI - WIND CHILL INDEX
   HX - HEAT INDEX
  VSB - VISIBILITY
$$





USA.gov is the U.S. government's official web portal to all federal, state and local government web resources and services.